User: anonymous   Login
Location: Goll?ig?dem
(16.6773°N, 80.7332°E)
Time: 23:49:14
(UTC+00:00)
Language:

Delta 198 - Orbit

View from above orbital plane
View from above orbital plane
View from above satellite
View from above satellite

Ground track
Ground track

The orbit data is extracted from the following two-line orbital elements,

1 20763U 90074B   25189.51578911  .00002021  00000-0  14718-3 0  9999
2 20763  24.7598 319.2377 0340802  21.8743 339.5949 14.60550410827206
Epoch (UTC): 08 July 2025 12:22:44
Eccentricity: 0.0340802
inclination: 24.7598°
perigee height: 450 km
apogee height: 932 km
right ascension of ascending node: 319.2377°
argument of perigee: 21.8743°
revolutions per day: 14.60550410
mean anomaly at epoch: 339.5949°
orbit number at epoch: 82720

The dashed part of the orbit path shows where the satellite is in the earth's shadow,  

DLR